Home   Weather   43°43'N, 70°17'W   Past weeks
Flag for USA

Past Weather in 43°43'N, 70°17'W, USA — Yesterday and Last 2 Weeks

Now
59 °F

Passing clouds.


Feels Like: 59 °F
Forecast: 58 / 47 °F
Wind: No wind

Location: Portland - Portland International Jetport

Current Time: Oct 15, 2019 at 3:56:32 pm

Latest Report: Oct 15, 2019 at 2:51 pm


Visibility: 10 mi

Pressure: 30.06 "Hg

Humidity: 32%

Dew Point: 29 °F

Location of 43°43'N, 70°17'WLocation

Past Weather in 43°43'N, 70°17'W — Graph

°F

43°43'N, 70°17'W Temperature Yesterday

Maximum temperature yesterday: 62 °F (at 12:51 pm)
Minimum temperature yesterday: 53 °F (at 12:34 am)
Average temperature yesterday: 56 °F

High & Low Weather Summary for the Past Weeks

 TemperatureHumidityPressure
High70 °F (Oct 7, 3:51 pm)97% (Oct 4, 3:00 am)30.43 "Hg (Oct 4, 3:00 am)
Low33 °F (Oct 5, 6:51 am)28% (Oct 5, 2:51 pm)29.65 "Hg (Oct 2, 2:51 am)
Average54 °F75%30.13 "Hg
* Reported Sep 30 1:51 pm — Oct 15 1:51 pm, 43°43'N, 70°17'W. Weather by CustomWeather, © 2019

Note: Actual official high and low records may vary slightly from our data, if they occured in-between our weather recording intervals... More about our weather records

Advertising

43°43'N, 70°17'W Weather History for the Previous 24 Hours

Scroll right to see more
 ConditionsComfort  
Time TempWeatherWind HumidityBarometerVisibility
1:51 pm
Tue, Oct 15
60 °FPassing clouds.6 mph33%30.07 "Hg10 mi
12:51 pm59 °FPassing clouds.8 mph32%30.09 "Hg10 mi
11:51 am58 °FPassing clouds.6 mph44%30.10 "Hg10 mi
10:51 am56 °FPassing clouds.8 mph49%30.11 "Hg10 mi
9:51 am55 °FPassing clouds.12 mph53%30.11 "Hg10 mi
8:51 am52 °FPassing clouds.8 mph64%30.11 "Hg10 mi
7:51 am50 °FPassing clouds.7 mph68%30.09 "Hg10 mi
6:51 am50 °FPassing clouds.5 mph77%30.07 "Hg10 mi
5:51 am51 °FMostly cloudy.5 mph83%30.05 "Hg10 mi
5:31 am50 °FOvercast.3 mph89%30.05 "Hg10 mi
4:51 am50 °FPassing clouds.No wind83%30.03 "Hg10 mi
3:51 am53 °FOvercast.No wind80%30.01 "Hg10 mi
2:51 am52 °FMostly cloudy.3 mph86%30.00 "Hg10 mi
1:51 am54 °FMostly cloudy.No wind83%29.99 "Hg10 mi
12:51 am54 °FClear.7 mph90%29.98 "Hg10 mi
12:03 am55 °FPassing clouds.7 mph87%29.97 "Hg10 mi
11:51 pm
Mon, Oct 14
56 °FOvercast.No wind87%29.97 "Hg9 mi
10:51 pm57 °FOvercast.3 mph87%29.96 "Hg10 mi
9:51 pm57 °FOvercast.No wind81%29.95 "Hg10 mi
8:51 pm57 °FOvercast.No wind81%29.94 "Hg10 mi
7:51 pm57 °FOvercast.No wind81%29.93 "Hg10 mi
6:51 pm58 °FOvercast.3 mph78%29.93 "Hg10 mi
5:51 pm58 °FMostly cloudy.8 mph81%29.92 "Hg10 mi
4:51 pm59 °FMostly cloudy.10 mph81%29.91 "Hg10 mi
3:51 pm60 °FPartly sunny.9 mph75%29.91 "Hg10 mi
Weather by CustomWeather, © 2019

See weather overview